Quick links : Home Page : Contact Us : Index : Site Map : Search Site : Ephemerides


(163902) 2003 SW222

Orbital Elements

The following orbital elements are taken from MPO123587
(163902) 2003 SW222
Epoch 2007 Oct. 27.0 TT = JDT 2454400.5                 MPC
M 306.13284              (2000.0)            P               Q
n   0.46054299     Peri.  164.88920     +0.01295830     -0.96290862
a   1.6606927      Node   283.79844     +0.88622253     +0.13588805
e   0.2482514      Incl.   16.11258     +0.46307851     -0.23311250
P   2.14           H   17.2           G   0.15           U   1
From 516 observations at 3 oppositions, 2003-2007, mean residual 0".41.
An explanation of the orbital elements is available.

These orbital elements are also available in forms suitable for loading into a number of popular planetarium-type software programs.


Ephemeris

The following ephemeris is at intervals of five days. A daily ephemeris covering the same time interval is also available.

Personalized ephemerides for this (and other) objects may be generated using the Minor Planet & Comet Ephemeris Service.

Date    TT    R. A. (2000) Decl.     Delta      r     Elong.  Phase     V
2008 04 14    05 42.19   +17 11.1    1.447    1.311    61.6    42.3    20.2
2008 04 19    05 59.38   +16 32.4    1.478    1.322    60.9    41.6    20.3
2008 04 24    06 16.29   +15 49.7    1.510    1.335    60.2    40.8    20.3
2008 04 29    06 32.92   +15 03.3    1.544    1.348    59.4    40.1    20.4
2008 05 04    06 49.26   +14 13.4    1.578    1.361    58.7    39.3    20.4
2008 05 09    07 05.32   +13 20.2    1.613    1.375    57.9    38.5    20.5
2008 05 14    07 21.09   +12 24.0    1.649    1.390    57.1    37.6    20.5
2008 05 19    07 36.56   +11 25.0    1.686    1.405    56.3    36.8    20.6
2008 05 24    07 51.75   +10 23.6    1.723    1.421    55.5    36.0    20.6
2008 05 29    08 06.66   +09 20.0    1.762    1.437    54.6    35.1    20.7
2008 06 03    08 21.31   +08 14.4    1.801    1.453    53.8    34.3    20.7
2008 06 08    08 35.71   +07 07.0    1.840    1.469    52.8    33.4    20.8
2008 06 13    08 49.86   +05 58.0    1.880    1.486    51.9    32.5    20.8
2008 06 18    09 03.77   +04 47.8    1.921    1.503    50.9    31.6    20.8
2008 06 23    09 17.46   +03 36.4    1.962    1.520    49.9    30.7    20.9
2008 06 28    09 30.94   +02 24.3    2.003    1.537    48.8    29.8    20.9
2008 07 03    09 44.23   +01 11.3    2.045    1.554    47.7    28.9    21.0
 
2009 05 19    21 10.71   -15 11.0    1.566    2.040   102.5    29.0    21.0

Back to Observable Critical-List Minor Planets

MPC

Valid HTML 4.01!